Canby, MN

1:19 PM CDT on May 25, 2017 (GMT -0500)
Canby

Weather History for KCNB - January, 2013

Change the Weather History Date:

Wednesday, January 9, 2013

  Actual Average (KMML) Record (KMML)
Temperature  
Mean Temperature 32 °F -  
Max Temperature 39 °F 16 °F 55 °F (2012)
Min Temperature 24 °F 0 °F -29 °F (1977)
Degree Days  
Heating Degree Days 34    
Moisture  
Dew Point 25 °F    
Average Humidity 75    
Maximum Humidity 91    
Minimum Humidity 64    
Precipitation  
Precipitation 0.00 in - - ()
Sea Level Pressure  
Sea Level Pressure 30.16 in    
Wind  
Wind Speed 14 mph (SW)    
Max Wind Speed 25 mph    
Max Gust Speed 33 mph    
Visibility 10 miles    
Events      
Averages and records for this station are not official NWS values.
T = Trace of Precipitation, MM = Missing Value Source: NWS Daily Summary

Daily Weather History Graph

Daily Weather History Graph

Search for Another Location

Airport or City:

Trip Planner

Search our weather history database for the weather conditions in past years. The results will help you decide how hot, cold, wet, or windy it might be!

Date:

Astronomy

Jan. 09, 2013 Rise Set
Actual Time 8:01 AM CST 5:03 PM CST
Civil Twilight 7:28 AM CST 5:36 PM CST
Nautical Twilight 6:51 AM CST 6:13 PM CST
Astronomical Twilight 6:16 AM CST 6:48 PM CST
Moon 5:41 AM CST (1/9) 3:06 PM CST (1/9)
Length of Visible Light 10h 08m
Length of Day
9h 02m
Waning Crescent, 6% of the Moon is Illuminated
Jan 9
Waning Crescent
Jan 11
New
Jan 18
First Quarter
Jan 26
Full
Feb 3
Last Quarter

Hourly Weather History & Observations

Time (CST) Temp. Windchill Dew Point Humidity Pressure Visibility Wind Dir Wind Speed Gust Speed Precip Events Conditions
12:16 AM 35.6 °F 26.6 °F 29.7 °F 79% 29.96 in 10.0 mi WSW 13.8 mph - N/A   Mostly Cloudy
12:36 AM 34.7 °F 25.1 °F 30.0 °F 83% 29.97 in 10.0 mi WSW 15.0 mph - N/A   Clear
12:55 AM 34.7 °F 24.7 °F 30.0 °F 83% 29.97 in 10.0 mi WSW 16.1 mph 23.0 mph N/A   Clear
1:15 AM 34.7 °F 24.7 °F 30.0 °F 83% 29.97 in 10.0 mi WSW 16.1 mph - N/A   Clear
1:35 AM 34.0 °F 23.4 °F 29.7 °F 84% 29.98 in 10.0 mi WSW 17.3 mph 23.0 mph N/A   Clear
1:56 AM 33.8 °F 23.2 °F 29.3 °F 84% 29.99 in 10.0 mi WSW 17.3 mph 25.3 mph N/A   Clear
2:16 AM 34.3 °F 22.6 °F 28.8 °F 80% 30.00 in 10.0 mi WSW 21.9 mph 28.8 mph N/A   Clear
2:35 AM 34.7 °F 22.2 °F 28.4 °F 78% 30.01 in 10.0 mi West 25.3 mph 31.1 mph N/A   Clear
2:56 AM 34.2 °F 22.1 °F 27.9 °F 78% 30.03 in 10.0 mi West 23.0 mph 32.2 mph N/A   Clear
3:16 AM 33.3 °F 21.2 °F 27.9 °F 81% 30.04 in 10.0 mi West 21.9 mph 29.9 mph N/A   Clear
3:35 AM 32.9 °F 21.0 °F 27.5 °F 81% 30.06 in 10.0 mi West 20.7 mph 26.5 mph N/A   Clear
3:56 AM 32.9 °F 21.3 °F 26.6 °F 78% 30.08 in 10.0 mi West 19.6 mph 26.5 mph N/A   Clear
4:15 AM 32.2 °F 21.1 °F 25.9 °F 78% 30.09 in 10.0 mi WNW 17.3 mph 24.2 mph N/A   Clear
4:35 AM 32.0 °F 21.2 °F 25.5 °F 77% 30.10 in 10.0 mi WNW 16.1 mph 23.0 mph N/A   Clear
4:56 AM 32.0 °F 19.5 °F 25.0 °F 75% 30.10 in 10.0 mi West 21.9 mph 27.6 mph N/A   Clear
5:15 AM 32.0 °F 20.5 °F 24.4 °F 74% 30.10 in 10.0 mi West 18.4 mph - N/A   Clear
5:36 AM 31.6 °F 20.0 °F 23.7 °F 73% 30.10 in 10.0 mi WNW 18.4 mph 26.5 mph N/A   Clear
5:55 AM 31.3 °F 19.9 °F 23.9 °F 74% 30.10 in 10.0 mi West 17.3 mph - N/A   Clear
6:16 AM 30.6 °F 19.0 °F 23.4 °F 75% 30.12 in 10.0 mi West 17.3 mph - N/A   Clear
6:35 AM 29.8 °F 18.9 °F 23.2 °F 76% 30.13 in 10.0 mi West 15.0 mph - N/A   Clear
7:15 AM 29.8 °F 17.0 °F 22.3 °F 73% 30.13 in 10.0 mi WNW 20.7 mph - N/A   Clear
7:35 AM 28.4 °F 16.6 °F 21.7 °F 76% 30.14 in 10.0 mi West 16.1 mph - N/A   Clear
7:55 AM 29.3 °F 19.1 °F 21.2 °F 72% 30.15 in 10.0 mi West 12.7 mph - N/A   Clear
8:15 AM 28.9 °F 19.2 °F 21.0 °F 72% 30.17 in 10.0 mi West 11.5 mph - N/A   Clear
8:36 AM 28.2 °F 18.3 °F 20.3 °F 72% 30.17 in 10.0 mi WNW 11.5 mph - N/A   Clear
8:55 AM 29.3 °F 18.2 °F 20.8 °F 71% 30.18 in 10.0 mi West 15.0 mph - N/A   Clear
9:15 AM 29.3 °F 20.2 °F 21.2 °F 72% 30.19 in 10.0 mi West 10.4 mph - N/A   Clear
9:35 AM 28.8 °F 19.0 °F 21.0 °F 73% 30.20 in 10.0 mi West 11.5 mph - N/A   Clear
9:55 AM 29.5 °F 20.4 °F 21.2 °F 71% 30.20 in 10.0 mi WNW 10.4 mph - N/A   Clear
10:16 AM 29.3 °F - 21.2 °F 72% 30.22 in 10.0 mi Calm Calm - N/A   Clear
10:35 AM 30.0 °F 23.2 °F 21.6 °F 71% 30.22 in 10.0 mi West 6.9 mph - N/A   Clear
10:56 AM 30.2 °F - 21.4 °F 70% 30.24 in 10.0 mi Calm Calm - N/A   Clear
11:15 AM 32.5 °F - 22.1 °F 65% 30.26 in 10.0 mi Calm Calm - N/A   Clear
11:36 AM 32.7 °F 26.4 °F 22.1 °F 65% 30.27 in 10.0 mi WSW 6.9 mph - N/A   Clear
11:55 AM 33.1 °F 28.7 °F 22.8 °F 66% 30.29 in 10.0 mi SW 4.6 mph - N/A   Clear
12:16 PM 33.3 °F 26.4 °F 23.0 °F 66% 30.29 in 10.0 mi SW 8.1 mph - N/A   Clear
12:35 PM 32.7 °F 25.0 °F 22.8 °F 67% 30.28 in 10.0 mi SW 9.2 mph - N/A   Clear
12:55 PM 32.9 °F 25.9 °F 22.5 °F 65% 30.28 in 10.0 mi SW 8.1 mph - N/A   Clear
1:16 PM 33.8 °F 28.6 °F 22.8 °F 64% 30.28 in 10.0 mi SW 5.8 mph - N/A   Clear
1:35 PM 33.8 °F 26.4 °F 22.8 °F 64% 30.28 in 10.0 mi SSW 9.2 mph - N/A   Clear
1:55 PM 33.8 °F 27.0 °F 23.7 °F 67% 30.28 in 10.0 mi SSE 8.1 mph - N/A   Clear
2:15 PM 33.6 °F 27.5 °F 24.6 °F 70% 30.28 in 10.0 mi South 6.9 mph - N/A   Clear
2:36 PM 32.9 °F 27.5 °F 26.1 °F 76% 30.28 in 10.0 mi SE 5.8 mph - N/A   Clear
2:55 PM 32.5 °F 27.1 °F 25.7 °F 76% 30.28 in 10.0 mi SSE 5.8 mph - N/A   Clear
3:16 PM 32.9 °F 26.7 °F 25.7 °F 75% 30.28 in 10.0 mi SE 6.9 mph - N/A   Clear
3:36 PM 32.2 °F 24.4 °F 26.2 °F 79% 30.27 in 10.0 mi ESE 9.2 mph - N/A   Clear
3:55 PM 32.0 °F 23.6 °F 26.2 °F 79% 30.26 in 10.0 mi SE 10.4 mph - N/A   Clear
4:16 PM 32.0 °F 24.2 °F 25.9 °F 78% 30.25 in 10.0 mi SE 9.2 mph - N/A   Clear
4:35 PM 30.6 °F 23.1 °F 25.5 °F 82% 30.25 in 10.0 mi SE 8.1 mph - N/A   Clear
4:56 PM 28.6 °F 21.5 °F 24.6 °F 85% 30.25 in 10.0 mi SE 6.9 mph - N/A   Clear
5:15 PM 28.9 °F 22.8 °F 24.6 °F 84% 30.25 in 10.0 mi SE 5.8 mph - N/A   Clear
5:35 PM 29.8 °F 24.9 °F 25.2 °F 83% 30.23 in 10.0 mi SE 4.6 mph - N/A   Clear
5:56 PM 27.0 °F 21.6 °F 23.7 °F 88% 30.23 in 10.0 mi SE 4.6 mph - N/A   Clear
6:15 PM 25.5 °F 18.7 °F 22.8 °F 89% 30.22 in 10.0 mi SSE 5.8 mph - N/A   Clear
6:36 PM 27.0 °F 19.5 °F 23.5 °F 87% 30.21 in 10.0 mi SSE 6.9 mph - N/A   Clear
6:56 PM 25.7 °F 18.0 °F 23.2 °F 90% 30.21 in 10.0 mi SSE 6.9 mph - N/A   Clear
7:15 PM 24.4 °F 16.5 °F 22.1 °F 91% 30.21 in 10.0 mi SSE 6.9 mph - N/A   Clear
7:35 PM 30.0 °F 24.1 °F 23.9 °F 78% 30.20 in 10.0 mi SSE 5.8 mph - N/A   Clear
7:56 PM 35.1 °F 27.4 °F 27.1 °F 73% 30.19 in 10.0 mi South 10.4 mph 17.3 mph N/A   Clear
8:15 PM 36.9 °F 30.7 °F 28.2 °F 71% 30.17 in 10.0 mi SSW 8.1 mph 19.6 mph N/A   Clear
8:35 PM 38.1 °F 29.1 °F 28.9 °F 70% 30.16 in 10.0 mi SSW 16.1 mph 21.9 mph N/A   Clear
8:56 PM 37.4 °F 27.8 °F 28.9 °F 71% 30.16 in 10.0 mi SSW 17.3 mph 24.2 mph N/A   Clear
9:15 PM 37.6 °F 27.4 °F 29.3 °F 72% 30.15 in 10.0 mi SSW 19.6 mph 24.2 mph N/A   Clear
9:35 PM 37.4 °F 27.5 °F 29.3 °F 73% 30.15 in 10.0 mi SSW 18.4 mph 24.2 mph N/A   Clear
9:56 PM 37.0 °F 27.7 °F 29.3 °F 74% 30.13 in 10.0 mi SSW 16.1 mph 21.9 mph N/A   Clear
10:15 PM 37.6 °F 28.4 °F 29.3 °F 72% 30.13 in 10.0 mi SSW 16.1 mph 23.0 mph N/A   Clear
10:35 PM 38.7 °F 28.8 °F 29.7 °F 70% 30.13 in 10.0 mi SSW 19.6 mph 26.5 mph N/A   Clear
10:55 PM 38.8 °F 28.8 °F 29.3 °F 69% 30.13 in 10.0 mi SSW 20.7 mph 28.8 mph N/A   Clear
11:15 PM 39.2 °F 30.2 °F 29.5 °F 68% 30.12 in 10.0 mi SSW 17.3 mph 28.8 mph N/A   Clear
11:36 PM 37.9 °F 27.6 °F 28.9 °F 70% 30.12 in 10.0 mi SSW 20.7 mph 33.4 mph N/A   Clear
11:55 PM 38.8 °F 28.8 °F 28.9 °F 68% 30.12 in 10.0 mi SSW 20.7 mph 29.9 mph N/A   Clear